Simultaneous Nadir Overpasses (SNOs) Predictions

Prediction of SNOs between AQUA and NPP Satellite Orbit:

Table of predicted SNOs for the next 14.0 days since TLE Epoch: 6/22/2018
Index Date (AQUA) Time (AQUA) Lat,Lon (AQUA) SZA (AQUA ) Date (NPP) Time (NPP) Lat,Lon (NPP) SZA (NPP ) Distance(km) Time Diff (sec)
1 06/23/2018 06:22:05 75.70, -37.29 74.74 06/23/2018 06:21:32 75.71, -37.20 74.74 2.71 33
2 06/23/2018 07:11:18 -76.44, 132.63 106.13 06/23/2018 07:12:02 -76.43, 132.57 106.15 1.72 44
3 06/25/2018 22:38:33 75.75, 78.73 74.77 06/25/2018 22:38:26 75.75, 78.69 74.78 1.34 7
4 06/25/2018 23:27:40 -76.77,-110.33 106.45 06/25/2018 23:28:49 -76.78,-110.33 106.51 0.19 69
5 06/28/2018 14:05:49 -75.16, 25.30 104.42 06/28/2018 14:04:49 -75.17, 25.35 104.39 1.47 60
6 06/28/2018 14:54:52 76.24,-163.89 74.33 06/28/2018 14:55:10 76.24,-163.86 74.30 0.91 18
7 07/01/2018 06:22:15 -75.26, 141.44 104.35 07/01/2018 06:21:41 -75.25, 141.37 104.31 2.12 34
8 07/01/2018 07:11:18 76.33, -47.73 74.40 07/01/2018 07:12:02 76.32, -47.81 74.39 2.43 44
9 07/03/2018 22:38:32 -75.84,-101.00 104.81 07/03/2018 22:38:23 -75.85,-100.98 104.81 0.62 9
10 07/03/2018 23:27:37 76.80, 69.74 74.06 07/03/2018 23:28:46 76.80, 69.77 74.00 0.62 69
11 07/06/2018 14:05:54 74.76,-155.75 76.72 07/06/2018 14:04:55 74.75,-155.83 76.79 2.71 59




NCC Satellite Simultaneous Nadir Overpasses (SNOs) Prediction Service
